Terminal Aerodrome Forecast
Issued by NWS Birmingham, AL

Home | Current Version | Previous Version | Text Only | Print | Product List | Glossary On
Versions: 1 2 3 4 5 6 7 8 9 10 11 12 13 14 15
000
FTUS44 KBMX 012330
TAFBHM
TAF
KBHM 012330Z 0200/0224 36007KT P6SM FEW050 SCT250
     FM020200 03004KT P6SM SKC
     FM021500 02007KT P6SM SKC=

USA.gov is the U.S. government's official web portal to all federal, state and local government web resources and services.